{"data":{"norad_id":36108,"epoch":"2026-09-19T02:53:47.916672Z","epoch_age_seconds":137483,"freshness":"FRESH","line1":"1 36108U 09068A   26262.12069348  .00000016  00000+0  00000+0 0  9997","line2":"2 36108   0.3097  84.9481 0000649  29.3819 164.8832  1.00273592 47534","mean_motion":1.00273592,"eccentricity":6.49e-5,"inclination_deg":0.3097,"raan_deg":84.9481,"arg_perigee_deg":29.3819,"mean_anomaly_deg":164.8832,"bstar":0,"rev_number":4753,"period_min":1436.0710245625,"perigee_km":35783.351942873,"apogee_km":35788.82485933,"semimajor_km":42164.225401102,"source":"CELESTRAK","updated_at":"2026-09-20T09:00:35.161246Z"}}